Location: Pompeys Pillar
(45.9913°N, 107.9528°W)
Time: 04:22:44
(UTC+00:00)

Tiros 1 - Pass Details

Date: 05 June 2022
Orbit: 629 x 663 km, 48.4° (Epoch: 30 June)

Event Time Altitude Azimuth Distance (km) Brightness Sun altitude
Rises 03:05:33 0° 201° (SSW) 2,906 10.3 -1.9°
Reaches altitude 10° 03:08:23 10° 184° (S) 2,000 9.4 -2.3°
Maximum altitude 03:11:40 20° 138° (SE) 1,474 8.4 -2.8°
Drops below altitude 10° 03:14:58 10° 92° (E) 2,005 9.2 -3.2°
Sets 03:17:48 0° 75° (ENE) 2,917 10.2 -3.6°
